Location: London
(51.5166°N, 0.1046°W)
Time: 20:14:04
(UTC+00:00)

ISS - Visible Passes

Search period start: 20 December 2014 00:00
Search period end: 30 December 2014 00:00
Orbit: 404 x 414 km, 51.6° (Epoch: 20 December)

Date Brightness Start Highest point End Pass type
(mag) Time Alt. Az. Time Alt. Az. Time Alt. Az.
20 Dec -3.4 17:30:41 10° W 17:34:00 90° NW 17:35:30 30° E visible
20 Dec -0.3 19:07:20 10° W 19:08:16 17° W 19:08:16 17° W visible
21 Dec -3.3 16:39:55 10° W 16:43:13 85° N 16:46:31 10° E visible
21 Dec -2.8 18:16:31 10° W 18:19:42 54° SSW 18:19:42 54° SSW visible
22 Dec -3.1 17:25:42 10° W 17:29:00 71° SSW 17:31:10 19° ESE visible
22 Dec -0.5 19:02:35 10° W 19:03:57 18° WSW 19:03:57 18° WSW visible
23 Dec -3.2 16:34:50 10° W 16:38:09 85° S 16:41:26 10° ESE visible
23 Dec -1.7 18:11:32 10° W 18:14:31 32° SSW 18:15:31 26° S visible
24 Dec -2.3 17:20:32 10° W 17:23:43 46° SSW 17:26:52 10° SE visible
24 Dec -0.2 18:58:22 10° WSW 18:59:40 12° SW 19:00:01 12° SW visible
25 Dec -0.6 18:06:37 10° W 18:08:58 18° SW 18:11:17 10° S visible
26 Dec -1.1 17:15:19 10° W 17:18:09 27° SSW 17:20:58 10° SSE visible
28 Dec -0.1 17:10:19 10° WSW 17:12:16 15° SW 17:14:12 10° S visible
